contact:dominique.lefevre@mio.osupytheas.fr, maurice.libes@osupytheas.fr, didier.mallarino@osupytheas.fr
Project:EMSO http://www.emso-fr.org/EMSO-France
Depth: 2436.0 m
Title:EMSO Ligure Ouest : Data MII capteur MICROCAT
DateTime_Computer,Latitude,Longitude,Temperature,Conductivity,Pressure,DateTime_Instrument
DateTime_Computer,Latitude,Longitude,degC,S m-1,dbar,DateTime_Instrument
2017-11-21T00:02:22Z,42.805,6.029,13.2942,4.59962,2472.047,2017-11-21T02:03:50Z
2017-11-21T00:05:25Z,42.805,6.029,13.2940,4.59972,2472.024,2017-11-21T02:06:53Z
2017-11-21T00:08:28Z,42.805,6.029,13.2936,4.59962,2472.024,2017-11-21T02:09:56Z
2017-11-21T00:11:31Z,42.805,6.029,13.2939,4.59961,2472.024,2017-11-21T02:12:59Z
2017-11-21T00:14:34Z,42.805,6.029,13.2935,4.59961,2472.01,2017-11-21T02:16:02Z
2017-11-21T00:17:37Z,42.805,6.029,13.2939,4.59972,2472.055,2017-11-21T02:19:05Z
2017-11-21T00:20:40Z,42.805,6.029,13.2934,4.59973,2472.047,2017-11-21T02:22:08Z
2017-11-21T00:23:43Z,42.805,6.029,13.2940,4.59964,2472.032,2017-11-21T02:25:10Z
2017-11-21T00:26:46Z,42.805,6.029,13.2939,4.59970,2472.024,2017-11-21T02:28:13Z
2017-11-21T00:29:48Z,42.805,6.029,13.2939,4.59981,2472.047,2017-11-21T02:31:16Z
2017-11-21T00:32:51Z,42.805,6.029,13.2939,4.59964,2472.032,2017-11-21T02:34:19Z
2017-11-21T00:35:54Z,42.805,6.029,13.2938,4.59963,2472.024,2017-11-21T02:37:22Z
2017-11-21T00:38:57Z,42.805,6.029,13.2938,4.59962,2472.01,2017-11-21T02:40:25Z
2017-11-21T00:42:00Z,42.805,6.029,13.2937,4.59967,2472.047,2017-11-21T02:43:28Z
2017-11-21T00:45:03Z,42.805,6.029,13.2937,4.59962,2472.024,2017-11-21T02:46:31Z
2017-11-21T00:48:06Z,42.805,6.029,13.2940,4.59964,2472.047,2017-11-21T02:49:34Z
2017-11-21T00:51:09Z,42.805,6.029,13.2937,4.59966,2472.01,2017-11-21T02:52:37Z
2017-11-21T00:54:12Z,42.805,6.029,13.2936,4.59961,2472.032,2017-11-21T02:55:39Z
2017-11-21T00:57:15Z,42.805,6.029,13.2939,4.59966,2472.01,2017-11-21T02:58:42Z
2017-11-21T01:00:17Z,42.805,6.029,13.2937,4.59970,2472.032,2017-11-21T03:01:45Z
2017-11-21T01:03:20Z,42.805,6.029,13.2939,4.59969,2472.047,2017-11-21T03:04:48Z
2017-11-21T01:06:23Z,42.805,6.029,13.2935,4.59972,2472.024,2017-11-21T03:07:51Z
2017-11-21T01:09:26Z,42.805,6.029,13.2936,4.59967,2471.987,2017-11-21T03:10:54Z
2017-11-21T01:12:29Z,42.805,6.029,13.2940,4.59975,2472.024,2017-11-21T03:13:57Z
2017-11-21T01:15:32Z,42.805,6.029,13.2941,4.59970,2472.002,2017-11-21T03:17:00Z
2017-11-21T01:18:35Z,42.805,6.029,13.2939,4.59968,2472.01,2017-11-21T03:20:03Z
2017-11-21T01:21:38Z,42.805,6.029,13.2951,4.59967,2472.039,2017-11-21T03:23:05Z
2017-11-21T01:24:41Z,42.805,6.029,13.2938,4.59970,2472.024,2017-11-21T03:26:08Z
2017-11-21T01:27:43Z,42.805,6.029,13.2943,4.59969,2472.002,2017-11-21T03:29:11Z
2017-11-21T01:30:46Z,42.805,6.029,13.2952,4.59978,2472.002,2017-11-21T03:32:14Z
2017-11-21T01:33:49Z,42.805,6.029,13.2951,4.59984,2471.987,2017-11-21T03:35:17Z
2017-11-21T01:36:52Z,42.805,6.029,13.2966,4.60007,2472.002,2017-11-21T03:38:20Z
2017-11-21T01:39:55Z,42.805,6.029,13.2982,4.60020,2472.01,2017-11-21T03:41:23Z
2017-11-21T01:42:58Z,42.805,6.029,13.2948,4.59981,2472.047,2017-11-21T03:44:26Z
2017-11-21T01:46:01Z,42.805,6.029,13.2975,4.60008,2471.987,2017-11-21T03:47:29Z
2017-11-21T01:49:04Z,42.805,6.029,13.2996,4.60003,2472.002,2017-11-21T03:50:31Z
2017-11-21T01:52:07Z,42.805,6.029,13.2981,4.60060,2472.01,2017-11-21T03:53:34Z
2017-11-21T01:55:09Z,42.805,6.029,13.2971,4.59998,2471.987,2017-11-21T03:56:37Z
2017-11-21T01:58:12Z,42.805,6.029,13.2958,4.59996,2471.979,2017-11-21T03:59:40Z
2017-11-21T02:01:15Z,42.805,6.029,13.2947,4.60008,2472.002,2017-11-21T04:02:43Z
2017-11-21T02:04:18Z,42.805,6.029,13.2958,4.60013,2472.01,2017-11-21T04:05:46Z
2017-11-21T02:07:21Z,42.805,6.029,13.2970,4.60041,2472.024,2017-11-21T04:08:49Z
2017-11-21T02:10:24Z,42.805,6.029,13.2978,4.60068,2472.016,2017-11-21T04:11:52Z
2017-11-21T02:13:27Z,42.805,6.029,13.2970,4.60004,2471.964,2017-11-21T04:14:55Z
2017-11-21T02:16:30Z,42.805,6.029,13.2967,4.60003,2471.987,2017-11-21T04:17:58Z
2017-11-21T02:19:33Z,42.805,6.029,13.2975,4.60028,2472.002,2017-11-21T04:21:00Z
2017-11-21T02:22:35Z,42.805,6.029,13.2975,4.59988,2471.987,2017-11-21T04:24:03Z
2017-11-21T02:25:38Z,42.805,6.029,13.2962,4.59993,2472.024,2017-11-21T04:27:06Z
2017-11-21T02:28:41Z,42.805,6.029,13.2975,4.60001,2471.987,2017-11-21T04:30:09Z
2017-11-21T02:31:44Z,42.805,6.029,13.2954,4.60038,2471.987,2017-11-21T04:33:12Z
2017-11-21T02:34:47Z,42.805,6.029,13.2982,4.60023,2471.979,2017-11-21T04:36:15Z
2017-11-21T02:37:50Z,42.805,6.029,13.2962,4.60064,2471.979,2017-11-21T04:39:18Z
2017-11-21T02:40:53Z,42.805,6.029,13.2995,4.60049,2472.024,2017-11-21T04:42:21Z
2017-11-21T02:43:56Z,42.805,6.029,13.2972,4.60058,2471.979,2017-11-21T04:45:24Z
2017-11-21T02:46:59Z,42.805,6.029,13.2970,4.60042,2471.979,2017-11-21T04:48:26Z
2017-11-21T02:50:02Z,42.805,6.029,13.2969,4.60052,2471.987,2017-11-21T04:51:29Z
2017-11-21T02:53:04Z,42.805,6.029,13.2975,4.60034,2471.979,2017-11-21T04:54:32Z
2017-11-21T02:56:07Z,42.805,6.029,13.2961,4.60025,2472.024,2017-11-21T04:57:35Z
2017-11-21T02:59:10Z,42.805,6.029,13.2966,4.59989,2472.002,2017-11-21T05:00:38Z
2017-11-21T03:02:13Z,42.805,6.029,13.2953,4.60041,2471.957,2017-11-21T05:03:41Z
2017-11-21T03:05:16Z,42.805,6.029,13.2961,4.60000,2472.002,2017-11-21T05:06:44Z
2017-11-21T03:08:19Z,42.805,6.029,13.2965,4.60021,2471.979,2017-11-21T05:09:47Z
2017-11-21T03:11:22Z,42.805,6.029,13.2958,4.60007,2471.964,2017-11-21T05:12:50Z
2017-11-21T03:14:25Z,42.805,6.029,13.2956,4.59997,2471.964,2017-11-21T05:15:52Z
2017-11-21T03:17:28Z,42.805,6.029,13.2958,4.59989,2471.957,2017-11-21T05:18:55Z
2017-11-21T03:20:30Z,42.805,6.029,13.2964,4.60017,2471.987,2017-11-21T05:21:58Z
2017-11-21T03:23:33Z,42.805,6.029,13.2948,4.59990,2471.979,2017-11-21T05:25:01Z
2017-11-21T03:26:36Z,42.805,6.029,13.2951,4.59992,2472.002,2017-11-21T05:28:04Z
2017-11-21T03:29:39Z,42.805,6.029,13.2954,4.59994,2472.002,2017-11-21T05:31:07Z
2017-11-21T03:32:42Z,42.805,6.029,13.2954,4.60001,2471.964,2017-11-21T05:34:10Z
2017-11-21T03:35:45Z,42.805,6.029,13.2956,4.59985,2472.002,2017-11-21T05:37:13Z
2017-11-21T03:38:48Z,42.805,6.029,13.2953,4.59979,2472.024,2017-11-21T05:40:16Z
2017-11-21T03:41:51Z,42.805,6.029,13.2949,4.59995,2472.024,2017-11-21T05:43:18Z
2017-11-21T03:44:54Z,42.805,6.029,13.2951,4.59993,2471.979,2017-11-21T05:46:21Z
2017-11-21T03:47:56Z,42.805,6.029,13.2957,4.59988,2471.987,2017-11-21T05:49:24Z
2017-11-21T03:50:59Z,42.805,6.029,13.2953,4.59992,2471.964,2017-11-21T05:52:27Z
2017-11-21T03:54:02Z,42.805,6.029,13.2950,4.59990,2471.987,2017-11-21T05:55:30Z
2017-11-21T03:57:05Z,42.805,6.029,13.2955,4.59995,2471.987,2017-11-21T05:58:33Z
2017-11-21T04:00:08Z,42.805,6.029,13.2951,4.59993,2472.01,2017-11-21T06:01:36Z
2017-11-21T04:03:11Z,42.805,6.029,13.2960,4.60004,2472.024,2017-11-21T06:04:39Z
2017-11-21T04:06:14Z,42.805,6.029,13.2957,4.59992,2472.024,2017-11-21T06:07:42Z
2017-11-21T04:09:17Z,42.805,6.029,13.2960,4.59990,2471.987,2017-11-21T06:10:45Z
2017-11-21T04:12:20Z,42.805,6.029,13.2954,4.59995,2472.024,2017-11-21T06:13:47Z
2017-11-21T04:15:22Z,42.805,6.029,13.2964,4.59998,2472.024,2017-11-21T06:16:50Z
2017-11-21T04:18:25Z,42.805,6.029,13.2948,4.59997,2472.069,2017-11-21T06:19:53Z
2017-11-21T04:21:28Z,42.805,6.029,13.2948,4.59993,2472.069,2017-11-21T06:22:56Z
2017-11-21T04:24:31Z,42.805,6.029,13.2958,4.59994,2472.002,2017-11-21T06:25:59Z
2017-11-21T04:27:34Z,42.805,6.029,13.2959,4.60016,2472.024,2017-11-21T06:29:02Z
2017-11-21T04:30:37Z,42.805,6.029,13.2961,4.59995,2472.047,2017-11-21T06:32:05Z
2017-11-21T04:33:40Z,42.805,6.029,13.2957,4.59995,2471.987,2017-11-21T06:35:08Z
2017-11-21T04:36:43Z,42.805,6.029,13.2945,4.59999,2472.024,2017-11-21T06:38:11Z
2017-11-21T04:39:46Z,42.805,6.029,13.2951,4.59990,2472.024,2017-11-21T06:41:13Z
2017-11-21T04:42:49Z,42.805,6.029,13.2949,4.59983,2472.002,2017-11-21T06:44:16Z
2017-11-21T04:45:51Z,42.805,6.029,13.2951,4.59984,2472.069,2017-11-21T06:47:19Z
2017-11-21T04:48:54Z,42.805,6.029,13.2951,4.59979,2472.047,2017-11-21T06:50:22Z
2017-11-21T04:51:57Z,42.805,6.029,13.2945,4.59990,2472.047,2017-11-21T06:53:25Z
2017-11-21T04:55:00Z,42.805,6.029,13.2948,4.59981,2472.01,2017-11-21T06:56:28Z
2017-11-21T04:58:03Z,42.805,6.029,13.2951,4.59979,2472.024,2017-11-21T06:59:31Z
2017-11-21T05:01:06Z,42.805,6.029,13.2951,4.59992,2472.032,2017-11-21T07:02:34Z
2017-11-21T05:04:09Z,42.805,6.029,13.2943,4.59991,2472.047,2017-11-21T07:05:37Z
2017-11-21T05:07:12Z,42.805,6.029,13.2950,4.59993,2472.032,2017-11-21T07:08:39Z
2017-11-21T05:10:15Z,42.805,6.029,13.2948,4.59988,2472.069,2017-11-21T07:11:42Z
2017-11-21T05:13:17Z,42.805,6.029,13.2946,4.59987,2472.069,2017-11-21T07:14:45Z
2017-11-21T05:16:20Z,42.805,6.029,13.2945,4.59980,2472.069,2017-11-21T07:17:48Z
2017-11-21T05:19:23Z,42.805,6.029,13.2951,4.59984,2472.055,2017-11-21T07:20:51Z
2017-11-21T05:22:26Z,42.805,6.029,13.2950,4.59989,2472.047,2017-11-21T07:23:54Z
2017-11-21T05:25:29Z,42.805,6.029,13.2949,4.59973,2472.055,2017-11-21T07:26:57Z
2017-11-21T05:28:32Z,42.805,6.029,13.2950,4.59993,2472.069,2017-11-21T07:30:00Z
2017-11-21T05:31:35Z,42.805,6.029,13.2951,4.59975,2472.092,2017-11-21T07:33:03Z
2017-11-21T05:34:38Z,42.805,6.029,13.2950,4.59989,2472.069,2017-11-21T07:36:06Z
2017-11-21T05:37:41Z,42.805,6.029,13.2943,4.59985,2472.092,2017-11-21T07:39:08Z
2017-11-21T05:40:43Z,42.805,6.029,13.2953,4.60005,2472.069,2017-11-21T07:42:11Z
2017-11-21T05:43:46Z,42.805,6.029,13.2950,4.59990,2472.1,2017-11-21T07:45:14Z
2017-11-21T05:46:49Z,42.805,6.029,13.2949,4.59994,2472.115,2017-11-21T07:48:17Z
2017-11-21T05:49:52Z,42.805,6.029,13.2951,4.59978,2472.077,2017-11-21T07:51:20Z
2017-11-21T05:52:55Z,42.805,6.029,13.2951,4.59975,2472.137,2017-11-21T07:54:23Z
2017-11-21T05:55:58Z,42.805,6.029,13.2947,4.59995,2472.1,2017-11-21T07:57:26Z
2017-11-21T05:59:01Z,42.805,6.029,13.2951,4.59988,2472.077,2017-11-21T08:00:29Z
2017-11-21T06:02:04Z,42.805,6.029,13.2947,4.59991,2472.115,2017-11-21T08:03:31Z
2017-11-21T06:05:07Z,42.805,6.029,13.2955,4.59998,2472.115,2017-11-21T08:06:34Z
2017-11-21T06:08:09Z,42.805,6.029,13.2954,4.59998,2472.115,2017-11-21T08:09:37Z
2017-11-21T06:11:12Z,42.805,6.029,13.2954,4.60006,2472.137,2017-11-21T08:12:40Z
2017-11-21T06:14:15Z,42.805,6.029,13.2967,4.59992,2472.115,2017-11-21T08:15:43Z
2017-11-21T06:17:18Z,42.805,6.029,13.2949,4.59970,2472.115,2017-11-21T08:18:46Z
2017-11-21T06:20:21Z,42.805,6.029,13.2947,4.59980,2472.16,2017-11-21T08:21:49Z
2017-11-21T06:23:24Z,42.805,6.029,13.2949,4.59988,2472.16,2017-11-21T08:24:52Z
2017-11-21T06:26:27Z,42.805,6.029,13.2945,4.59992,2472.16,2017-11-21T08:27:55Z
2017-11-21T06:29:30Z,42.805,6.029,13.2954,4.60001,2472.137,2017-11-21T08:30:58Z
2017-11-21T06:32:33Z,42.805,6.029,13.2954,4.60006,2472.137,2017-11-21T08:34:00Z
2017-11-21T06:35:35Z,42.805,6.029,13.2959,4.60006,2472.182,2017-11-21T08:37:03Z
2017-11-21T06:38:38Z,42.805,6.029,13.2949,4.59994,2472.182,2017-11-21T08:40:06Z
2017-11-21T06:41:41Z,42.805,6.029,13.2954,4.59996,2472.182,2017-11-21T08:43:09Z
2017-11-21T06:44:44Z,42.805,6.029,13.2951,4.59995,2472.145,2017-11-21T08:46:12Z
2017-11-21T06:47:47Z,42.805,6.029,13.2946,4.60001,2472.145,2017-11-21T08:49:15Z
2017-11-21T06:50:50Z,42.805,6.029,13.2959,4.60012,2472.168,2017-11-21T08:52:18Z
2017-11-21T06:53:53Z,42.805,6.029,13.2955,4.60008,2472.16,2017-11-21T08:55:21Z
2017-11-21T06:56:56Z,42.805,6.029,13.2952,4.60000,2472.16,2017-11-21T08:58:24Z
2017-11-21T06:59:59Z,42.805,6.029,13.2944,4.59995,2472.182,2017-11-21T09:01:26Z
2017-11-21T07:03:02Z,42.805,6.029,13.2945,4.59991,2472.182,2017-11-21T09:04:29Z
2017-11-21T07:06:04Z,42.805,6.029,13.2953,4.59996,2472.19,2017-11-21T09:07:32Z
2017-11-21T07:09:07Z,42.805,6.029,13.2958,4.60012,2472.168,2017-11-21T09:10:35Z
2017-11-21T07:12:10Z,42.805,6.029,13.2961,4.60035,2472.175,2017-11-21T09:13:38Z
2017-11-21T07:15:13Z,42.805,6.029,13.2968,4.60038,2472.16,2017-11-21T09:16:41Z
2017-11-21T07:18:16Z,42.805,6.029,13.2976,4.60037,2472.205,2017-11-21T09:19:44Z
2017-11-21T07:21:19Z,42.805,6.029,13.2969,4.60036,2472.19,2017-11-21T09:22:47Z
2017-11-21T07:24:22Z,42.805,6.029,13.2962,4.60024,2472.19,2017-11-21T09:25:50Z
2017-11-21T07:27:25Z,42.805,6.029,13.2961,4.60038,2472.19,2017-11-21T09:28:52Z
2017-11-21T07:30:28Z,42.805,6.029,13.2948,4.60024,2472.182,2017-11-21T09:31:55Z
2017-11-21T07:33:30Z,42.805,6.029,13.2961,4.60032,2472.168,2017-11-21T09:34:58Z
2017-11-21T07:36:33Z,42.805,6.029,13.2971,4.60050,2472.227,2017-11-21T09:38:01Z
2017-11-21T07:39:36Z,42.805,6.029,13.2979,4.60028,2472.16,2017-11-21T09:41:04Z
2017-11-21T07:42:39Z,42.805,6.029,13.2962,4.60028,2472.19,2017-11-21T09:44:07Z
2017-11-21T07:45:42Z,42.805,6.029,13.2975,4.60046,2472.227,2017-11-21T09:47:10Z
2017-11-21T07:48:45Z,42.805,6.029,13.2978,4.60048,2472.205,2017-11-21T09:50:13Z
2017-11-21T07:51:48Z,42.805,6.029,13.2983,4.60041,2472.205,2017-11-21T09:53:16Z
2017-11-21T07:54:51Z,42.805,6.029,13.2991,4.60019,2472.213,2017-11-21T09:56:19Z
2017-11-21T07:57:54Z,42.805,6.029,13.2977,4.60027,2472.227,2017-11-21T09:59:21Z
2017-11-21T08:00:56Z,42.805,6.029,13.2989,4.60028,2472.227,2017-11-21T10:02:24Z
2017-11-21T08:03:59Z,42.805,6.029,13.2983,4.60016,2472.205,2017-11-21T10:05:27Z
2017-11-21T08:07:02Z,42.805,6.029,13.2982,4.60056,2472.227,2017-11-21T10:08:30Z
2017-11-21T08:10:05Z,42.805,6.029,13.3003,4.60032,2472.227,2017-11-21T10:11:33Z
2017-11-21T08:13:08Z,42.805,6.029,13.3002,4.60043,2472.205,2017-11-21T10:14:36Z
2017-11-21T08:16:11Z,42.805,6.029,13.3007,4.59998,2472.227,2017-11-21T10:17:39Z
2017-11-21T08:19:14Z,42.805,6.029,13.2980,4.60018,2472.227,2017-11-21T10:20:42Z
2017-11-21T08:22:17Z,42.805,6.029,13.2968,4.59987,2472.205,2017-11-21T10:23:45Z
2017-11-21T08:25:20Z,42.805,6.029,13.2991,4.59989,2472.25,2017-11-21T10:26:47Z
2017-11-21T08:28:23Z,42.805,6.029,13.2977,4.59999,2472.25,2017-11-21T10:29:50Z
2017-11-21T08:31:25Z,42.805,6.029,13.2989,4.60010,2472.227,2017-11-21T10:32:53Z
2017-11-21T08:34:28Z,42.805,6.029,13.2973,4.59995,2472.227,2017-11-21T10:35:56Z
2017-11-21T08:37:31Z,42.805,6.029,13.2957,4.59990,2472.205,2017-11-21T10:38:59Z
2017-11-21T08:40:34Z,42.805,6.029,13.2958,4.59978,2472.205,2017-11-21T10:42:02Z
2017-11-21T08:43:37Z,42.805,6.029,13.2981,4.59995,2472.227,2017-11-21T10:45:05Z
2017-11-21T08:46:40Z,42.805,6.029,13.2950,4.59990,2472.236,2017-11-21T10:48:08Z
2017-11-21T08:49:43Z,42.805,6.029,13.2954,4.60004,2472.227,2017-11-21T10:51:11Z
2017-11-21T08:52:46Z,42.805,6.029,13.2964,4.60003,2472.25,2017-11-21T10:54:14Z
2017-11-21T08:55:49Z,42.805,6.029,13.2970,4.59995,2472.213,2017-11-21T10:57:16Z
2017-11-21T08:58:51Z,42.805,6.029,13.2978,4.59990,2472.236,2017-11-21T11:00:19Z
2017-11-21T09:01:54Z,42.805,6.029,13.2987,4.59987,2472.205,2017-11-21T11:03:22Z
2017-11-21T09:04:57Z,42.805,6.029,13.2978,4.60025,2472.25,2017-11-21T11:06:25Z
2017-11-21T09:08:00Z,42.805,6.029,13.2980,4.59978,2472.227,2017-11-21T11:09:28Z
2017-11-21T09:11:03Z,42.805,6.029,13.2982,4.60043,2472.205,2017-11-21T11:12:31Z
2017-11-21T09:14:06Z,42.805,6.029,13.3004,4.60009,2472.25,2017-11-21T11:15:34Z
2017-11-21T09:17:09Z,42.805,6.029,13.2962,4.59975,2472.205,2017-11-21T11:18:37Z
2017-11-21T09:20:12Z,42.805,6.029,13.2965,4.59999,2472.227,2017-11-21T11:21:40Z
2017-11-21T09:23:15Z,42.805,6.029,13.2952,4.59977,2472.213,2017-11-21T11:24:42Z
2017-11-21T09:26:18Z,42.805,6.029,13.2966,4.59975,2472.213,2017-11-21T11:27:45Z
2017-11-21T09:29:20Z,42.805,6.029,13.2951,4.59983,2472.227,2017-11-21T11:30:48Z
2017-11-21T09:32:23Z,42.805,6.029,13.2955,4.59979,2472.205,2017-11-21T11:33:51Z
2017-11-21T09:35:26Z,42.805,6.029,13.2971,4.59991,2472.22,2017-11-21T11:36:54Z
2017-11-21T09:38:29Z,42.805,6.029,13.2976,4.59983,2472.19,2017-11-21T11:39:57Z
2017-11-21T09:41:32Z,42.805,6.029,13.2980,4.59982,2472.205,2017-11-21T11:43:00Z
2017-11-21T09:44:35Z,42.805,6.029,13.2971,4.59984,2472.227,2017-11-21T11:46:03Z
2017-11-21T09:47:38Z,42.805,6.029,13.2962,4.59998,2472.227,2017-11-21T11:49:06Z
2017-11-21T09:50:41Z,42.805,6.029,13.2970,4.59981,2472.19,2017-11-21T11:52:09Z
2017-11-21T09:53:44Z,42.805,6.029,13.2970,4.59992,2472.213,2017-11-21T11:55:11Z
2017-11-21T09:56:47Z,42.805,6.029,13.2975,4.60021,2472.205,2017-11-21T11:58:14Z
2017-11-21T09:59:49Z,42.805,6.029,13.2974,4.59987,2472.227,2017-11-21T12:01:17Z
2017-11-21T10:02:52Z,42.805,6.029,13.2973,4.59988,2472.205,2017-11-21T12:04:20Z
2017-11-21T10:05:55Z,42.805,6.029,13.2967,4.59977,2472.227,2017-11-21T12:07:23Z
2017-11-21T10:08:58Z,42.805,6.029,13.2970,4.59981,2472.182,2017-11-21T12:10:26Z
2017-11-21T10:12:01Z,42.805,6.029,13.2966,4.59987,2472.205,2017-11-21T12:13:29Z
2017-11-21T10:15:04Z,42.805,6.029,13.2958,4.59978,2472.205,2017-11-21T12:16:32Z
2017-11-21T10:18:07Z,42.805,6.029,13.2968,4.59986,2472.205,2017-11-21T12:19:35Z
2017-11-21T10:21:10Z,42.805,6.029,13.2969,4.59984,2472.19,2017-11-21T12:22:38Z
2017-11-21T10:24:13Z,42.805,6.029,13.2966,4.59975,2472.227,2017-11-21T12:25:40Z
2017-11-21T10:27:16Z,42.805,6.029,13.2958,4.59984,2472.19,2017-11-21T12:28:43Z
2017-11-21T10:30:18Z,42.805,6.029,13.2954,4.59984,2472.168,2017-11-21T12:31:46Z
2017-11-21T10:33:21Z,42.805,6.029,13.2960,4.59981,2472.205,2017-11-21T12:34:49Z
2017-11-21T10:36:24Z,42.805,6.029,13.2961,4.59983,2472.182,2017-11-21T12:37:52Z
2017-11-21T10:39:27Z,42.805,6.029,13.2974,4.59989,2472.182,2017-11-21T12:40:55Z
2017-11-21T10:42:30Z,42.805,6.029,13.2974,4.59975,2472.205,2017-11-21T12:43:58Z
2017-11-21T10:45:33Z,42.805,6.029,13.2970,4.59977,2472.205,2017-11-21T12:47:01Z
2017-11-21T10:48:36Z,42.805,6.029,13.2964,4.59978,2472.205,2017-11-21T12:50:04Z
2017-11-21T10:51:39Z,42.805,6.029,13.2961,4.59983,2472.168,2017-11-21T12:53:07Z
2017-11-21T10:54:42Z,42.805,6.029,13.2958,4.59984,2472.213,2017-11-21T12:56:09Z
2017-11-21T10:57:44Z,42.805,6.029,13.2969,4.59972,2472.19,2017-11-21T12:59:12Z
2017-11-21T11:00:47Z,42.805,6.029,13.2961,4.59978,2472.22,2017-11-21T13:02:15Z
2017-11-21T11:03:50Z,42.805,6.029,13.2958,4.59977,2472.168,2017-11-21T13:05:18Z
2017-11-21T11:06:53Z,42.805,6.029,13.2956,4.59984,2472.168,2017-11-21T13:08:21Z
2017-11-21T11:09:56Z,42.805,6.029,13.2983,4.59982,2472.16,2017-11-21T13:11:24Z
2017-11-21T11:12:59Z,42.805,6.029,13.2977,4.59979,2472.16,2017-11-21T13:14:27Z
2017-11-21T11:16:02Z,42.805,6.029,13.2982,4.59980,2472.145,2017-11-21T13:17:30Z
2017-11-21T11:19:05Z,42.805,6.029,13.2957,4.59981,2472.16,2017-11-21T13:20:33Z
2017-11-21T11:22:08Z,42.805,6.029,13.2964,4.59978,2472.16,2017-11-21T13:23:35Z
2017-11-21T11:25:11Z,42.805,6.029,13.2970,4.59984,2472.182,2017-11-21T13:26:38Z
2017-11-21T11:28:13Z,42.805,6.029,13.2970,4.59998,2472.182,2017-11-21T13:29:41Z
2017-11-21T11:31:16Z,42.805,6.029,13.2978,4.59985,2472.168,2017-11-21T13:32:44Z
2017-11-21T11:34:19Z,42.805,6.029,13.2972,4.59987,2472.168,2017-11-21T13:35:47Z
2017-11-21T11:37:22Z,42.805,6.029,13.2966,4.59981,2472.182,2017-11-21T13:38:50Z
2017-11-21T11:40:25Z,42.805,6.029,13.2970,4.59982,2472.16,2017-11-21T13:41:53Z
2017-11-21T11:43:28Z,42.805,6.029,13.2977,4.59997,2472.16,2017-11-21T13:44:56Z
2017-11-21T11:46:31Z,42.805,6.029,13.2974,4.59978,2472.145,2017-11-21T13:47:59Z
2017-11-21T11:49:34Z,42.805,6.029,13.2979,4.59980,2472.16,2017-11-21T13:51:02Z
2017-11-21T11:52:37Z,42.805,6.029,13.2964,4.59978,2472.123,2017-11-21T13:54:04Z
2017-11-21T11:55:39Z,42.805,6.029,13.2960,4.59981,2472.16,2017-11-21T13:57:07Z
2017-11-21T11:58:42Z,42.805,6.029,13.2959,4.59982,2472.145,2017-11-21T14:00:10Z
2017-11-21T12:01:45Z,42.805,6.029,13.2963,4.59983,2472.16,2017-11-21T14:03:13Z
2017-11-21T12:04:48Z,42.805,6.029,13.2973,4.59985,2472.137,2017-11-21T14:06:16Z
2017-11-21T12:07:51Z,42.805,6.029,13.2988,4.59983,2472.123,2017-11-21T14:09:19Z
2017-11-21T12:10:54Z,42.805,6.029,13.2974,4.59987,2472.182,2017-11-21T14:12:22Z
2017-11-21T12:13:57Z,42.805,6.029,13.2965,4.59981,2472.123,2017-11-21T14:15:25Z
2017-11-21T12:17:00Z,42.805,6.029,13.2968,4.59985,2472.137,2017-11-21T14:18:28Z
2017-11-21T12:20:03Z,42.805,6.029,13.2973,4.59973,2472.123,2017-11-21T14:21:31Z
2017-11-21T12:23:06Z,42.805,6.029,13.2963,4.59978,2472.123,2017-11-21T14:24:33Z
2017-11-21T12:26:08Z,42.805,6.029,13.2966,4.59981,2472.115,2017-11-21T14:27:36Z
2017-11-21T12:29:11Z,42.805,6.029,13.2984,4.59982,2472.137,2017-11-21T14:30:39Z
2017-11-21T12:32:14Z,42.805,6.029,13.2973,4.59982,2472.123,2017-11-21T14:33:42Z
2017-11-21T12:35:17Z,42.805,6.029,13.2969,4.59991,2472.1,2017-11-21T14:36:45Z
2017-11-21T12:38:20Z,42.805,6.029,13.2967,4.59982,2472.115,2017-11-21T14:39:48Z
2017-11-21T12:41:23Z,42.805,6.029,13.2975,4.59986,2472.1,2017-11-21T14:42:51Z
2017-11-21T12:44:26Z,42.805,6.029,13.2958,4.59984,2472.115,2017-11-21T14:45:54Z
2017-11-21T12:47:29Z,42.805,6.029,13.2960,4.59981,2472.115,2017-11-21T14:48:57Z
2017-11-21T12:50:32Z,42.805,6.029,13.2952,4.59985,2472.1,2017-11-21T14:51:59Z
2017-11-21T12:53:35Z,42.805,6.029,13.2974,4.59990,2472.092,2017-11-21T14:55:02Z
2017-11-21T12:56:37Z,42.805,6.029,13.2961,4.59998,2472.137,2017-11-21T14:58:05Z
2017-11-21T12:59:40Z,42.805,6.029,13.2978,4.60002,2472.1,2017-11-21T15:01:08Z
2017-11-21T13:02:43Z,42.805,6.029,13.2990,4.60000,2472.137,2017-11-21T15:04:11Z
2017-11-21T13:05:46Z,42.805,6.029,13.2948,4.60001,2472.107,2017-11-21T15:07:14Z
2017-11-21T13:08:49Z,42.805,6.029,13.2949,4.59993,2472.115,2017-11-21T15:10:17Z
2017-11-21T13:11:52Z,42.805,6.029,13.2977,4.60003,2472.115,2017-11-21T15:13:20Z
2017-11-21T13:14:55Z,42.805,6.029,13.2989,4.60018,2472.092,2017-11-21T15:16:23Z
2017-11-21T13:17:58Z,42.805,6.029,13.2945,4.60033,2472.115,2017-11-21T15:19:26Z
2017-11-21T13:21:01Z,42.805,6.029,13.2957,4.60001,2472.1,2017-11-21T15:22:28Z
2017-11-21T13:24:03Z,42.805,6.029,13.2938,4.60027,2472.092,2017-11-21T15:25:31Z
2017-11-21T13:27:06Z,42.805,6.029,13.2938,4.59987,2472.1,2017-11-21T15:28:34Z
2017-11-21T13:30:09Z,42.805,6.029,13.2941,4.59972,2472.077,2017-11-21T15:31:37Z
2017-11-21T13:33:12Z,42.805,6.029,13.2940,4.59970,2472.092,2017-11-21T15:34:40Z
2017-11-21T13:36:15Z,42.805,6.029,13.2942,4.60012,2472.115,2017-11-21T15:37:43Z
2017-11-21T13:39:18Z,42.805,6.029,13.2935,4.60003,2472.115,2017-11-21T15:40:46Z
2017-11-21T13:42:21Z,42.805,6.029,13.2939,4.59998,2472.077,2017-11-21T15:43:49Z
2017-11-21T13:45:24Z,42.805,6.029,13.2935,4.59967,2472.1,2017-11-21T15:46:52Z
2017-11-21T13:48:27Z,42.805,6.029,13.2940,4.59962,2472.069,2017-11-21T15:49:54Z
2017-11-21T13:51:30Z,42.805,6.029,13.2939,4.59964,2472.092,2017-11-21T15:52:57Z
2017-11-21T13:54:32Z,42.805,6.029,13.2938,4.59970,2472.077,2017-11-21T15:56:00Z
2017-11-21T13:57:35Z,42.805,6.029,13.2936,4.59972,2472.055,2017-11-21T15:59:03Z
2017-11-21T14:00:38Z,42.805,6.029,13.2940,4.59972,2472.077,2017-11-21T16:02:06Z
2017-11-21T14:03:41Z,42.805,6.029,13.2935,4.59969,2472.069,2017-11-21T16:05:09Z
2017-11-21T14:06:44Z,42.805,6.029,13.2939,4.59964,2472.055,2017-11-21T16:08:12Z
2017-11-21T14:09:47Z,42.805,6.029,13.2940,4.59965,2472.055,2017-11-21T16:11:15Z
2017-11-21T14:12:50Z,42.805,6.029,13.2938,4.59963,2472.055,2017-11-21T16:14:18Z
2017-11-21T14:15:53Z,42.805,6.029,13.2942,4.59964,2472.069,2017-11-21T16:17:21Z
2017-11-21T14:18:56Z,42.805,6.029,13.2935,4.59964,2472.032,2017-11-21T16:20:23Z
2017-11-21T14:21:59Z,42.805,6.029,13.2943,4.59966,2472.032,2017-11-21T16:23:26Z
2017-11-21T14:25:01Z,42.805,6.029,13.2940,4.59965,2472.069,2017-11-21T16:26:29Z
2017-11-21T14:28:04Z,42.805,6.029,13.2943,4.59967,2472.069,2017-11-21T16:29:32Z
2017-11-21T14:31:07Z,42.805,6.029,13.2935,4.59970,2472.092,2017-11-21T16:32:35Z
2017-11-21T14:34:10Z,42.805,6.029,13.2940,4.59967,2472.055,2017-11-21T16:35:38Z
2017-11-21T14:37:13Z,42.805,6.029,13.2939,4.59962,2472.077,2017-11-21T16:38:41Z
2017-11-21T14:40:16Z,42.805,6.029,13.2936,4.59963,2472.077,2017-11-21T16:41:44Z
2017-11-21T14:43:19Z,42.805,6.029,13.2931,4.59964,2472.055,2017-11-21T16:44:47Z
2017-11-21T14:46:22Z,42.805,6.029,13.2936,4.59968,2472.055,2017-11-21T16:47:50Z
2017-11-21T14:49:25Z,42.805,6.029,13.2938,4.59967,2472.032,2017-11-21T16:50:52Z
2017-11-21T14:52:28Z,42.805,6.029,13.2937,4.59967,2472.069,2017-11-21T16:53:55Z
2017-11-21T14:55:30Z,42.805,6.029,13.2938,4.59967,2472.047,2017-11-21T16:56:58Z
2017-11-21T14:58:33Z,42.805,6.029,13.2937,4.59964,2472.092,2017-11-21T17:00:01Z